Snowfall_Accumulation
0.0 0.0 0.0 0.0 0.0 0.0 0.0 0.0 0.4 1.0 0.1 0.0 0.0 0.0 0.0 0.0 0.0 0.0 0.0 nan nan nan nan nan nan nan nan nan nan nan nan nan nan nan nan nan nan nan
0.0 0.0 0.0 0.0 0.0 0.0 0.0 0.0 0.0 0.2 0.9 0.0 0.0 0.0 0.0 0.0 0.0 0.0 0.0 nan nan nan nan nan nan nan nan nan nan nan nan nan nan nan nan nan nan nan
0.0 0.0 0.0 0.0 0.0 0.1 0.0 0.0 0.0 0.1 0.5 0.0 0.0 0.0 0.0 0.0 0.0 0.0 0.0 0.0 0.0 nan nan nan nan nan nan nan nan nan nan nan nan nan nan nan nan nan
0.0 0.0 0.0 0.0 0.1 0.0 0.0 0.0 0.1 0.0 0.1 0.2 0.0 0.0 0.0 0.0 0.0 0.0 0.0 0.0 0.0 nan nan nan nan nan nan nan nan nan nan nan nan nan nan nan nan nan
0.0 0.0 0.0 0.1 0.0 0.0 0.2 0.1 0.1 0.0 0.0 0.0 0.0 0.0 0.0 0.0 0.0 0.0 0.0 0.0 0.0 nan nan nan nan nan nan nan nan nan nan nan nan nan nan nan nan nan
0.1 0.1 0.1 0.1 0.2 0.6 0.1 0.1 0.0 0.0 0.0 0.0 0.0 0.1 0.1 0.1 0.0 0.0 0.1 0.1 0.0 0.0 nan nan nan nan nan nan nan nan nan nan nan nan nan nan nan nan
0.3 0.2 0.3 nan nan nan 1.0 0.4 0.2 0.2 0.2 0.1 0.2 0.3 0.2 0.3 0.1 0.1 0.2 0.2 0.2 0.2 0.2 0.2 0.1 0.0 0.0 nan nan nan nan nan nan nan nan nan nan nan
0.5 0.5 0.3 0.6 0.5 nan nan nan nan 1.5 1.6 0.8 0.5 0.4 0.1 0.2 0.2 0.3 0.5 1.0 1.0 0.3 0.1 0.3 0.0 0.1 0.1 0.0 nan nan nan nan nan nan nan nan nan nan
0.7 0.5 0.4 0.6 nan 1.0 nan nan nan nan 1.0 2.3 2.0 0.4 0.6 0.1 0.3 0.5 0.2 0.4 0.5 0.4 0.3 0.8 0.6 0.3 0.3 0.0 nan nan nan nan nan nan nan nan nan nan
1.0 1.1 1.2 1.1 1.4 2.3 2.2 2.9 2.2 2.0 2.1 2.4 1.9 1.5 0.9 0.7 0.8 0.8 1.1 0.5 1.1 1.4 0.4 1.7 1.2 0.8 0.7 0.4 nan nan nan nan nan nan nan nan nan nan
0.1 0.5 1.1 1.6 nan nan 2.8 2.9 3.3 2.7 nan nan nan nan nan nan nan 2.1 2.1 2.0 3.6 1.8 1.4 1.3 1.9 1.6 1.5 1.1 0.6 nan nan nan nan nan nan nan nan nan
0.1 0.2 nan 1.1 nan nan 1.7 2.5 3.5 3.7 3.2 2.5 2.8 2.2 nan nan nan 1.3 2.8 2.8 2.9 3.3 1.4 2.3 2.0 1.7 2.8 1.9 1.3 0.8 0.6 nan nan nan nan nan nan 0.2
0.7 0.8 0.8 nan nan nan nan 1.2 2.6 2.5 2.9 3.4 3.5 4.3 3.7 2.4 3.6 3.0 2.4 4.4 4.3 2.4 0.6 2.7 2.6 2.3 2.5 2.0 1.5 1.3 0.6 0.8 0.7 0.6 nan nan nan 0.3
1.2 1.7 1.2 nan nan nan 1.4 nan nan 1.6 3.7 4.3 5.1 5.8 5.5 5.5 3.9 3.8 3.3 3.0 2.6 4.0 1.3 1.6 6.4 2.3 2.7 3.2 1.8 1.6 1.5 1.3 0.9 0.9 0.8 nan nan nan
1.2 1.2 nan nan nan 0.8 nan nan 0.8 3.6 4.3 6.1 4.5 4.4 5.2 5.1 4.2 4.8 3.4 2.8 2.1 2.1 1.9 2.0 2.9 1.4 2.2 2.7 2.3 2.2 2.5 2.1 1.4 1.0 1.0 0.8 0.8 0.7
1.0 2.2 0.8 1.7 0.6 1.3 2.0 2.1 1.7 2.2 3.0 3.6 4.6 4.1 3.0 3.9 4.9 5.1 6.7 5.5 6.4 5.9 1.9 2.5 2.4 1.5 4.2 2.3 1.7 2.8 1.8 2.2 1.7 1.2 1.0 1.2 0.9 0.7
3.3 5.0 4.8 3.8 3.1 2.5 1.7 1.2 1.1 1.7 3.1 3.4 3.4 3.2 3.4 4.4 4.9 4.3 5.0 5.9 7.5 6.9 6.2 4.9 3.2 3.1 3.2 1.9 4.1 2.0 2.1 2.2 1.7 1.9 1.8 1.9 1.2 0.8
3.4 4.4 7.2 7.5 5.4 2.9 3.6 3.5 2.9 2.4 2.3 2.6 3.7 3.3 4.0 4.6 6.6 6.4 5.9 6.9 8.8 8.2 8.5 6.9 6.2 6.7 4.3 2.8 2.3 2.3 2.8 2.5 2.1 1.6 1.7 2.5 2.0 1.7
6.4 6.2 11.1 11.9 7.9 4.5 4.0 3.4 4.5 3.7 2.3 3.8 4.1 4.7 4.9 3.7 6.2 6.5 6.8 6.9 8.0 6.3 5.7 6.5 7.4 7.5 8.9 13.8 4.2 nan 3.7 1.9 2.5 3.4 2.1 2.5 3.0 2.6
5.1 7.9 10.8 9.8 6.4 5.6 5.1 5.0 4.7 5.5 5.2 4.1 6.5 8.5 9.7 7.9 7.3 6.6 6.1 10.0 8.2 5.9 4.4 4.1 6.0 6.6 9.2 12.1 13.5 7.4 nan 4.4 3.4 5.0 6.2 4.0 2.7 nan
6.7 7.6 10.2 9.0 8.3 6.4 11.6 12.0 13.7 12.5 12.0 14.2 8.6 8.5 16.0 6.4 7.6 5.9 7.1 5.9 5.7 4.9 5.9 5.1 5.3 1.6 4.9 6.1 21.4 11.3 7.8 nan 1.8 3.4 3.8 4.9 4.7 3.2
13.5 11.2 10.3 10.5 12.6 11.5 17.0 21.0 18.5 17.6 13.6 9.9 16.6 20.6 18.2 9.6 9.6 9.0 10.2 11.3 7.1 7.1 6.9 4.5 3.3 4.1 5.4 7.0 9.0 12.0 8.6 7.4 nan nan nan nan 4.6 7.1
18.2 12.2 13.4 13.3 12.9 14.7 11.0 15.5 10.3 24.5 13.4 12.7 12.0 11.2 32.3 14.7 8.6 8.9 9.3 7.2 6.1 6.5 5.0 6.7 4.5 4.5 6.2 6.0 6.9 9.5 8.0 9.9 7.3 6.9 7.7 nan nan nan
Water_Equivalent
0.00 0.00 0.00 0.00 0.00 0.00 0.00 0.00 0.06 0.14 0.01 0.00 0.00 0.00 0.00 0.00 0.00 0.00 0.00 nan nan nan nan nan nan nan nan nan nan nan nan nan nan nan nan nan nan nan
0.00 0.00 0.00 0.00 0.00 0.00 0.00 0.00 0.00 0.02 0.12 0.00 0.00 0.00 0.00 0.00 0.00 0.00 0.00 nan nan nan nan nan nan nan nan nan nan nan nan nan nan nan nan nan nan nan
0.00 0.00 0.00 0.00 0.00 0.01 0.00 0.00 0.00 0.01 0.07 0.00 0.00 0.00 0.00 0.00 0.00 0.00 0.00 0.00 0.00 nan nan nan nan nan nan nan nan nan nan nan nan nan nan nan nan nan
0.00 0.00 0.00 0.00 0.01 0.00 0.00 0.01 0.02 0.00 0.01 0.02 0.00 0.00 0.00 0.00 0.00 0.00 0.00 0.00 0.00 nan nan nan nan nan nan nan nan nan nan nan nan nan nan nan nan nan
0.01 0.00 0.00 0.01 0.00 0.00 0.02 0.01 0.01 0.00 0.00 0.01 0.00 0.00 0.00 0.00 0.00 0.00 0.00 0.00 0.00 nan nan nan nan nan nan nan nan nan nan nan nan nan nan nan nan nan
0.03 0.03 0.02 0.02 0.03 0.10 0.02 0.02 0.01 0.01 0.01 0.00 0.00 0.01 0.01 0.02 0.00 0.00 0.04 0.04 0.01 0.00 nan nan nan nan nan nan nan nan nan nan nan nan nan nan nan nan
0.07 0.05 0.07 nan nan nan 0.18 0.07 0.03 0.03 0.02 0.01 0.05 0.09 0.08 0.10 0.03 0.02 0.04 0.06 0.05 0.06 0.06 0.06 0.03 0.00 0.00 nan nan nan nan nan nan nan nan nan nan nan
0.09 0.12 0.07 0.14 0.13 nan nan nan nan 0.23 0.25 0.12 0.10 0.08 0.01 0.07 0.07 0.09 0.11 0.26 0.22 0.09 0.04 0.08 0.02 0.03 0.03 0.00 nan nan nan nan nan nan nan nan nan nan
0.15 0.11 0.07 0.16 nan 0.20 nan nan nan nan 0.34 0.47 0.26 0.07 0.08 0.01 0.03 0.07 0.03 0.09 0.10 0.11 0.09 0.21 0.18 0.10 0.09 0.00 nan nan nan nan nan nan nan nan nan nan
0.27 0.24 0.24 0.22 0.29 0.44 0.39 0.60 0.46 0.47 0.46 0.52 0.39 0.28 0.17 0.11 0.11 0.11 0.14 0.08 0.31 0.39 0.11 0.46 0.37 0.20 0.21 0.13 nan nan nan nan nan nan nan nan nan nan
0.03 0.13 0.24 0.28 nan nan 0.45 0.52 0.65 0.55 nan nan nan nan nan nan nan 0.38 0.58 0.48 0.94 0.49 0.40 0.35 0.47 0.38 0.39 0.29 0.18 nan nan nan nan nan nan nan nan nan
0.02 0.05 nan 0.28 nan nan 0.23 0.34 0.53 0.52 0.62 0.60 0.75 0.67 nan nan nan 0.24 0.59 0.48 0.70 0.75 0.40 0.55 0.44 0.37 0.63 0.47 0.35 0.25 0.17 nan nan nan nan nan nan 0.07
0.19 0.19 0.20 nan nan nan nan 0.16 0.30 0.38 0.56 0.62 0.71 1.07 0.98 0.58 0.95 0.71 0.48 0.87 0.83 0.56 0.18 0.62 0.58 0.49 0.55 0.42 0.34 0.33 0.21 0.27 0.25 0.21 nan nan nan 0.08
0.25 0.40 0.32 nan nan nan 0.36 nan nan 0.44 0.76 0.84 0.95 1.02 1.05 1.11 0.85 1.00 0.81 0.84 0.67 0.90 0.32 0.36 1.44 0.52 0.58 0.63 0.41 0.42 0.42 0.41 0.30 0.29 0.27 nan nan nan
0.29 0.29 nan nan nan 0.26 nan nan 0.28 0.73 0.86 1.14 0.77 0.71 0.81 0.87 0.79 0.97 0.85 0.79 0.70 0.60 0.54 0.49 0.66 0.32 0.58 0.64 0.53 0.54 0.65 0.58 0.43 0.31 0.29 0.25 0.22 0.20
0.29 0.43 0.26 0.37 0.20 0.35 0.47 0.42 0.38 0.48 0.58 0.61 0.72 0.62 0.50 0.65 0.79 0.86 1.16 1.17 1.50 1.48 0.55 0.78 0.66 0.36 1.07 0.62 0.44 0.64 0.45 0.56 0.46 0.34 0.31 0.35 0.27 0.19
0.74 0.89 0.75 0.58 0.46 0.40 0.33 0.28 0.25 0.34 0.58 0.57 0.57 0.54 0.60 0.69 0.76 0.74 0.86 0.97 1.28 1.18 1.22 1.08 0.88 0.86 0.86 0.44 0.95 0.46 0.47 0.50 0.42 0.49 0.50 0.50 0.34 0.26
0.64 0.75 1.20 1.28 0.84 0.45 0.58 0.58 0.48 0.46 0.38 0.43 0.67 0.54 0.63 0.74 0.92 1.01 1.00 1.13 1.29 1.21 1.36 1.29 1.18 1.51 1.15 0.70 0.53 0.52 0.70 0.60 0.52 0.39 0.44 0.62 0.46 0.42
1.09 0.96 1.64 1.82 1.17 0.61 0.55 0.49 0.65 0.60 0.31 0.61 0.68 0.77 0.78 0.60 1.01 0.92 0.99 0.99 1.17 0.89 0.85 1.06 1.24 1.33 1.64 2.67 0.99 nan 0.85 0.45 0.60 0.83 0.54 0.65 0.74 0.59
0.78 1.10 1.43 1.35 0.84 0.70 0.63 0.63 0.63 0.82 0.79 0.65 1.02 1.36 1.55 1.18 1.10 0.88 0.82 1.25 1.04 0.79 0.63 0.61 0.91 1.04 1.48 2.05 2.61 1.66 nan 1.13 0.88 1.11 1.19 0.79 0.63 nan
0.91 1.01 1.35 1.18 1.06 0.83 1.61 1.70 1.98 1.77 1.73 2.15 1.31 1.33 2.76 0.95 1.15 0.91 1.02 1.16 1.11 0.70 0.81 0.75 0.79 0.52 0.85 1.31 4.34 2.37 1.85 nan 0.53 0.82 0.77 0.99 0.84 0.58
1.93 1.56 1.38 1.44 1.69 1.53 2.34 3.08 2.74 2.63 1.92 1.45 2.43 3.39 3.10 1.52 1.34 1.21 1.48 1.56 1.00 0.96 0.88 0.69 0.50 0.65 0.91 1.10 1.43 2.36 1.57 1.61 nan nan nan nan 0.94 1.21
2.32 1.57 1.77 1.78 1.76 1.97 1.38 2.01 1.34 3.65 1.77 1.69 1.59 1.56 5.69 1.95 1.18 1.25 1.32 0.99 0.78 0.84 0.68 0.86 0.69 0.74 0.95 0.91 1.07 1.52 1.21 1.82 1.27 1.19 1.56 nan nan nan
SL_Ratio
nan nan nan nan nan nan nan nan 6.7 7.5 6.6 nan nan nan nan nan nan nan nan nan nan nan nan nan nan nan nan nan nan nan nan nan nan nan nan nan nan nan
nan nan nan nan nan nan nan nan nan 6.3 7.3 nan nan nan nan nan nan nan nan nan nan nan nan nan nan nan nan nan nan nan nan nan nan nan nan nan nan nan
nan nan nan nan nan 6.6 nan nan 10.0 7.2 7.2 6.7 nan nan nan nan nan nan nan nan nan nan nan nan nan nan nan nan nan nan nan nan nan nan nan nan nan nan
nan nan nan nan 6.6 nan 10.0 7.0 7.0 nan 7.7 6.8 0.0 nan nan nan nan nan nan nan nan nan nan nan nan nan nan nan nan nan nan nan nan nan nan nan nan nan
5.0 5.0 7.5 6.5 6.3 0.0 7.1 7.1 7.9 8.3 6.7 7.0 8.2 0.0 10.0 nan nan nan nan nan nan nan nan nan nan nan nan nan nan nan nan nan nan nan nan nan nan nan
4.6 4.4 4.9 4.8 4.8 6.5 6.7 7.8 7.2 7.9 8.2 8.5 7.8 4.2 3.7 2.5 3.3 3.3 2.8 2.5 2.5 nan nan nan nan nan nan nan nan nan nan nan nan nan nan nan nan nan
4.3 4.5 3.8 nan nan nan 5.8 5.7 6.8 7.5 8.4 8.8 4.0 3.4 3.1 3.2 3.5 3.2 4.1 3.4 3.4 3.0 3.1 3.0 2.9 nan nan nan nan nan nan nan nan nan nan nan nan nan
5.4 3.9 4.1 3.9 3.9 nan nan nan nan 6.4 6.4 6.3 4.6 4.7 7.7 3.1 2.9 3.5 4.1 3.9 4.4 3.2 3.1 3.2 3.0 3.1 3.0 2.9 nan nan nan nan nan nan nan nan nan nan
4.5 4.6 4.8 4.1 nan 4.9 nan nan nan nan 3.0 4.8 7.8 5.3 7.3 8.3 8.0 7.1 6.4 4.6 4.5 3.5 3.3 3.6 3.3 3.4 3.1 2.9 nan nan nan nan nan nan nan nan nan nan
3.8 4.8 4.8 5.0 4.9 5.2 5.6 4.8 4.7 4.3 4.6 4.6 5.0 5.4 5.5 6.3 7.3 7.6 7.7 6.2 3.6 3.5 3.3 3.7 3.3 3.9 3.3 3.2 nan nan nan nan nan nan nan nan nan nan
3.4 4.0 4.7 5.6 nan nan 6.2 5.5 5.1 5.0 nan nan nan nan nan nan nan 5.4 3.6 4.2 3.8 3.7 3.6 3.7 4.0 4.0 3.9 3.8 3.2 nan nan nan nan nan nan nan nan nan
3.6 3.6 nan 4.0 nan nan 7.2 7.4 6.5 7.1 5.2 4.1 3.7 3.2 nan nan nan 5.5 4.8 5.9 4.1 4.3 3.4 4.2 4.5 4.5 4.4 4.1 3.6 3.2 3.2 nan nan nan nan nan nan 3.3
3.7 4.0 3.8 nan nan nan nan 7.3 8.5 6.6 5.3 5.5 5.0 4.0 3.7 4.2 3.7 4.3 5.0 5.1 5.1 4.3 3.5 4.4 4.5 4.6 4.5 4.7 4.3 3.8 2.9 3.0 2.9 2.9 nan nan nan 3.1
4.8 4.4 3.8 nan nan nan 4.0 nan nan 3.5 4.8 5.2 5.4 5.7 5.3 5.0 4.7 3.8 4.0 3.6 3.8 4.5 4.0 4.5 4.5 4.3 4.7 5.0 4.4 3.9 3.6 3.2 2.9 3.0 3.0 nan nan nan
4.2 4.1 nan nan nan 3.0 nan nan 3.0 4.9 5.0 5.4 5.9 6.3 6.4 5.8 5.3 5.0 4.0 3.5 3.0 3.6 3.5 4.0 4.4 4.4 3.9 4.2 4.3 4.0 3.9 3.6 3.2 3.3 3.3 3.4 3.4 3.4
3.6 5.0 3.0 4.7 3.0 3.7 4.3 5.0 4.4 4.7 5.2 5.9 6.5 6.6 6.0 6.0 6.1 5.9 5.8 4.7 4.3 4.0 3.5 3.2 3.7 4.3 4.0 3.8 4.0 4.4 4.1 3.9 3.7 3.5 3.3 3.4 3.4 3.5
4.5 5.6 6.4 6.5 6.8 6.2 5.3 4.3 4.4 4.9 5.5 5.9 5.9 5.8 5.6 6.3 6.4 5.8 5.8 6.1 5.8 5.8 5.1 4.5 3.6 3.6 3.8 4.4 4.4 4.3 4.5 4.3 4.0 3.9 3.6 3.8 3.6 3.2
5.3 5.9 6.0 5.9 6.4 6.4 6.3 6.1 5.9 5.3 6.1 6.0 5.6 6.0 6.4 6.2 7.1 6.3 5.9 6.1 6.8 6.8 6.3 5.3 5.2 4.4 3.7 4.0 4.4 4.5 4.0 4.2 4.1 4.0 3.9 4.1 4.4 4.0
5.9 6.4 6.8 6.5 6.7 7.4 7.3 7.0 6.8 6.2 7.4 6.3 6.1 6.0 6.3 6.1 6.2 7.1 6.9 7.0 6.9 7.1 6.7 6.1 6.0 5.7 5.4 5.2 4.2 nan 4.4 4.3 4.1 4.1 3.8 3.8 4.0 4.4
6.6 7.1 7.5 7.2 7.6 8.0 8.1 8.0 7.5 6.8 6.6 6.4 6.3 6.3 6.3 6.7 6.6 7.5 7.4 8.0 7.8 7.4 7.0 6.7 6.6 6.4 6.2 5.9 5.2 4.5 nan 3.9 3.9 4.5 5.2 5.1 4.3 nan
7.4 7.5 7.5 7.7 7.9 7.8 7.2 7.1 6.9 7.0 6.9 6.6 6.5 6.4 5.8 6.7 6.6 6.5 7.0 5.1 5.1 6.9 7.3 6.9 6.6 3.0 5.8 4.6 4.9 4.8 4.2 nan 3.5 4.2 5.0 4.9 5.6 5.5
7.0 7.2 7.5 7.3 7.5 7.5 7.3 6.8 6.8 6.7 7.1 6.9 6.8 6.1 5.9 6.3 7.2 7.4 6.9 7.2 7.1 7.4 7.9 6.6 6.5 6.4 5.9 6.4 6.3 5.1 5.5 4.6 nan nan nan nan 4.9 5.9
7.8 7.8 7.6 7.5 7.4 7.4 8.0 7.7 7.7 6.7 7.6 7.6 7.5 7.2 5.7 7.5 7.3 7.1 7.1 7.3 7.8 7.7 7.4 7.8 6.5 6.2 6.5 6.6 6.5 6.3 6.7 5.4 5.7 5.8 5.0 nan nan nan